SCP
0 0 0 0 0 0 0 0 0 0 0 0 0 0 0 0 0 0 0 0 0 0 0 0 0 0 0 0 0 0 0 0 0 0 0 0 0 0 0 0 0 0 0 0 0 0 0 0 0 0 0 0 0 0
0 0 0 0 0 0 0 0 0 0 0 0 0 0 0 0 0 0 0 0 0 0 0 0 0 0 0 0 0 0 0 0 0 0 0 0 0 0 0 0 0 0 0 0 0 0 0 0 0 0 0 0 0 0
0 0 0 0 0 0 0 0 0 0 0 0 0 0 0 0 0 0 0 0 0 0 0 0 0 0 0 0 0 0 0 0 0 0 0 0 0 0 0 0 0 0 0 0 0 0 0 0 0 0 0 0 0 0
0 0 0 0 0 0 0 0 0 0 0 0 0 0 0 0 0 0 0 0 0 0 0 0 0 0 0 0 0 0 0 0 0 0 0 0 0 0 0 0 0 0 0 0 0 0 0 0 0 0 0 0 0 0
0 0 0 0 0 0 0 0 0 0 0 0 0 0 0 0 0 0 0 0 0 0 0 0 0 0 0 0 0 0 0 0 0 0 0 0 0 0 0 0 0 0 0 0 0 0 0 0 0 0 0 0 0 0
0 0 0 0 0 0 0 0 0 0 0 0 0 0 0 0 0 0 0 0 0 0 0 0 0 0 0 0 0 0 0 0 0 0 0 0 0 0 0 0 0 0 0 0 0 0 0 0 0 0 0 0 0 0
0 0 0 0 0 0 0 0 0 0 0 0 0 0 0 0 0 0 0 0 0 0 0 0 0 0 0 0 0 0 0 0 0 0 0 0 0 0 0 0 0 0 0 0 0 0 0 0 0 0 0 0 0 0
0 0 0 0 0 0 0 0 0 0 0 0 0 0 0 0 0 0 0 0 0 0 0 0 0 0 0 0 0 0 0 0 0 0 0 0 0 0 0 0 0 0 0 0 0 0 0 0 0 0 0 0 0 0
0 0 0 0 0 0 0 0 0 0 0 0 0 0 0 0 0 0 0 0 0 0 0 0 0 0 0 0 0 0 0 0 0 0 0 0 0 0 0 0 0 0 0 0 0 0 0 0 0 0 0 0 0 0
0 0 0 0 0 0 0 0 0 0 0 0 0 0 0 0 0 0 0 0 0 0 0 0 0 0 0 0 0 0 0 0 0 0 0 0 0 0 0 0 0 0 0 0 0 0 0 0 0 0 0 0 0 0
0 0 0 0 0 0 0 0 0 0 0 0 0 0 0 0 0 0 0 0 0 0 0 0 0 0 0 0 0 0 0 0 0 0 0 0 0 0 0 0 0 0 0 0 0 0 0 0 0 0 0 0 0 0
-0 0 0 0 0 0 0 0 0 0 0 0 0 0 0 0 0 0 0 0 0 0 0 0 0 0 0 0 0 0 0 0 0 0 0 0 0 0 0 0 0 0 0 0 0 0 0 0 0 0 0 0 0 0
-0 -0 0 0 0 0 0 0 0 0 0 0 0 0 0 0 0 0 0 0 0 0 0 0 0 0 0 0 0 0 0 0 0 0 0 0 0 0 0 0 0 0 0 0 0 0 0 0 0 0 0 0 0 0
-0 -0 -0 0 0 0 0 0 0 0 0 0 0 0 0 0 0 0 0 0 0 0 0 0 0 0 0 0 0 0 0 0 0 0 0 0 0 0 0 0 0 0 0 0 0 0 0 0 0 0 0 0 0 0
-0 -0 -0 0 0 0 0 0 -0 0 0 0 0 0 0 0 0 0 0 0 0 0 0 0 0 0 0 0 0 0 0 0 0 0 0 0 0 0 0 0 0 0 0 0 0 0 0 0 0 0 0 0 0 0
-0 -0 -0 -0 -0 0 0 0 0 0 0 0 0 0 0 0 0 0 0 0 0 0 0 0 0 0 0 0 0 0 0 0 0 0 0 0 0 0 0 0 0 0 0 0 0 0 0 0 0 0 0 0 0 0
-0 0 -0 -0 0 -0 0 0 0 0 0 0 0 0 0 0 0 0 0 0 0 0 0 0 0 0 0 0 0 0 0 0 0 0 0 0 0 0 0 0 0 0 0 0 0 0 0 0 0 0 0 0 0 0
0 0 -0 0 0 0 0 0 0 0 0 0 0 0 0 0 0 0 0 0 0 0 0 0 0 0 0 0 0 0 0 0 0 0 0 0 0 0 0 0 0 0 0 0 0 0 0 0 0 0 0 0 0 0
0 0 -0 -0 0 0 0 0 0 0 0 0 0 0 0 0 0 0 0 0 0 0 0 0 0 0 0 0 0 0 0 0 0 0 0 0 0 0 0 0 0 0 0 0 0 0 0 0 0 0 0 0 0 0
0 -0 -0 -0 0 0 0 0 0 0 0 0 -0 -0 0 0 0 0 0 0 0 0 0 0 0 0 0 0 0 0 0 0 0 0 0 0 0 0 0 0 0 0 0 0 0 0 0 0 0 0 0 0 0 0
-0 -0 -0 -0 0 -0 0 0 0 0 0 0 0 0 0 0 0 0 0 0 0 0 0 0 0 0 0 0 0 0 0 0 0 0 0 0 0 0 0 0 0 0 0 0 0 0 0 0 0 0 0 0 0 0
0 -0 0 0 0 0 0 0 0 0 0 0 0 0 0 0 0 0 0 0 0 0 0 0 0 0 0 0 0 0 0 0 0 0 0 0 0 0 0 0 0 0 0 0 0 0 0 0 0 0 0 0 0 0
-0 -0 -0 -0 0 -0 0 0 0 0 0 0 0 0 0 0 0 0 0 0 0 0 0 0 0 0 0 0 0 0 0 0 0 0 0 0 0 0 0 0 0 0 0 0 0 0 0 0 0 0 0 0 0 0
-0 -0 -0 -0 -0 0 -0 -0 0 0 0 0 0 0 0 0 0 0 0 0 0 0 0 0 0 0 0 0 0 0 0 0 0 0 0 0 0 0 0 0 0 0 0 0 0 0 0 0 0 0 0 0 0 0
-0 -0 -0 -0 -0 -0 -0 -0 0 0 0 0 0 0 0 0 0 0 0 0 0 0 0 0 0 0 0 0 0 0 0 0 0 0 0 0 0 0 0 0 0 0 0 0 0 0 0 0 0 0 0 0 0 0
0 -0 0 0 0 -0 0 0 -0 -0 0 0 0 0 0 0 0 0 0 0 0 0 0 0 0 0 0 0 0 0 0 0 0 0 0 0 0 0 0 0 0 0 0 0 0 0 0 0 0 0 0 0 0 0
0 -0 0 0 0 0 0 0 0 0 0 0 0 0 0 0 0 0 0 0 0 0 0 0 0 0 0 0 0 0 0 0 0 0 0 0 0 0 0 0 0 0 0 0 0 0 0 0 0 0 0 0 0 0
0 0 0 -0 -0 -0 -0 -0 -0 0 0 0 0 0 0 0 0 0 0 0 0 0 0 0 0 0 0 0 0 0 0 0 0 0 0 0 0 0 0 0 0 0 0 0 0 0 0 0 0 0 0 0 0 0
0 0 0 0 0 0 0 0 -0 -0 0 0 0 0 0 0 0 0 0 0 0 0 0 0 0 0 0 0 0 0 0 0 0 0 0 0 0 0 0 0 0 0 0 0 0 0 0 0 0 0 0 0 0 0
0 0 0 0 0 0 0 0 0 0 0 0 -0 -0 0 0 0 0 0 0 0 0 0 0 0 0 0 0 0 0 0 0 0 0 0 0 0 0 0 0 0 0 0 0 0 0 0 0 0 0 0 0 0 0
0 0 0 0 0 0 0 0 0 0 0 0 0 0 0 -0 -0 0 0 0 0 0 0 0 0 0 0 0 0 0 0 0 0 0 0 0 0 0 0 0 0 0 0 0 0 0 0 0 0 0 0 0 0 0
0 0 0 0 0 0 0 0 0 0 0 0 0 0 0 0 0 0 0 0 0 -0 -0 -0 -0 -0 0 0 0 0 0 0 0 0 0 0 0 0 0 0 0 0 0 0 0 0 0 0 0 0 0 0 0 0
0 0 0 0 0 0 0 0 0 0 0 0 0 0 0 0 0 0 0 0 0 0 -0 -0 -0 -0 -0 -0 -0 -0 0 0 0 0 0 0 0 0 0 0 0 0 0 0 0 0 0 0 0 0 0 0 0 0
Wind_Speed_500mb
14 10 7 8 20 35 27 20 22 22 20 20 18 19 20 22 20 11 31 20 17 19 24 27 21 22 24 30 18 21 15 4 5 8 7 6 6 11 7 10 15 19 18 10 5 3 25 19 11 19 8 10 15 18
10 14 8 8 29 36 32 28 27 23 22 20 20 18 18 20 21 16 25 31 38 24 29 51 39 32 37 26 37 32 5 16 15 7 5 7 4 3 11 11 3 9 11 11 19 12 6 33 5 13 14 19 17 18
12 9 9 12 27 45 39 28 27 25 21 18 16 16 13 14 18 20 27 36 47 40 26 20 38 40 28 26 48 18 18 18 19 16 9 6 8 8 8 8 7 7 7 5 7 8 7 25 15 20 18 17 19 13
31 32 16 11 29 50 40 36 28 23 20 17 12 14 14 12 16 21 27 22 30 18 9 10 26 31 33 25 34 15 34 31 31 20 9 4 6 8 6 5 6 7 20 11 4 5 3 15 24 26 21 16 13 10
62 60 67 68 61 59 50 40 32 25 22 19 16 14 14 15 16 18 23 19 18 10 9 8 29 27 28 26 28 29 42 47 31 9 5 4 6 7 2 3 3 11 11 9 8 20 7 9 35 25 19 17 13 13
45 48 52 52 51 51 45 37 30 23 19 18 16 14 14 15 21 21 8 13 17 27 15 5 9 15 26 29 34 33 31 23 14 11 5 7 5 2 6 5 9 17 11 7 9 28 15 24 22 22 18 12 9 7
30 34 35 36 36 35 31 29 30 23 18 17 15 14 13 11 24 9 6 15 25 19 12 6 5 8 26 26 20 23 22 18 12 10 6 6 5 6 5 4 6 21 18 23 29 29 17 19 11 13 12 10 10 13
14 21 22 18 18 17 19 18 16 17 18 17 17 14 14 11 11 13 3 21 36 17 11 7 2 5 15 9 8 8 9 10 11 8 6 5 7 5 3 15 12 26 23 20 19 13 12 10 7 10 14 18 21 23
3 14 15 15 15 8 8 9 7 10 11 15 18 18 16 11 4 14 16 38 31 10 10 7 8 7 16 10 9 7 7 5 4 4 1 8 1 7 12 23 32 36 27 25 20 11 12 16 18 22 24 24 26 28
15 12 10 10 5 3 11 16 9 10 10 13 19 8 7 10 11 35 20 17 11 5 7 5 11 5 15 8 4 7 5 5 4 5 13 5 7 23 20 25 29 25 22 22 20 23 31 33 33 35 36 34 34 36
15 13 10 7 5 2 9 16 20 16 15 12 7 3 7 24 24 11 10 8 7 4 12 11 9 11 10 6 5 2 4 1 5 6 8 4 8 4 25 37 38 30 28 29 32 35 31 28 30 29 26 22 23 25
20 18 13 9 10 8 10 22 25 25 12 13 6 6 11 13 10 5 6 8 6 12 11 9 16 16 14 12 7 5 6 4 8 10 6 5 6 5 17 28 36 33 33 35 35 38 41 40 37 34 33 33 32 31
20 14 7 10 13 15 10 17 32 32 24 14 2 1 3 5 7 10 8 2 5 5 26 26 9 16 12 8 11 6 7 6 13 5 7 8 5 10 20 21 22 23 26 31 33 33 29 28 29 32 33 36 37 36
22 9 12 16 8 9 25 16 23 42 24 6 5 5 4 5 3 2 5 6 3 5 37 48 14 7 9 6 4 9 4 6 5 5 12 4 20 26 25 25 19 16 14 14 14 15 17 17 18 19 20 23 27 29
18 11 17 14 21 5 17 19 45 50 13 9 8 4 2 2 5 3 4 4 2 34 38 22 17 11 5 9 5 7 6 4 9 10 6 15 32 31 33 32 31 29 25 21 15 9 4 5 9 15 18 21 24 26
7 14 13 26 27 13 27 27 28 42 7 6 5 7 1 3 5 9 7 5 2 43 30 15 7 8 1 8 7 10 15 13 8 7 9 33 32 29 28 26 22 18 13 8 4 6 12 16 21 25 31 37 39 39
14 5 14 15 32 34 38 38 31 9 6 5 5 13 8 8 1 7 5 6 7 6 5 7 8 8 6 7 2 8 10 7 7 18 28 30 26 21 15 8 4 1 3 5 8 13 17 23 29 34 35 38 42 45
32 18 13 41 50 51 42 13 10 8 11 14 6 8 9 8 6 6 5 10 6 6 4 4 15 5 9 10 7 5 6 13 25 26 26 22 16 10 6 5 9 13 18 21 23 26 30 33 37 42 46 49 50 51
28 30 38 51 39 34 10 10 8 9 9 7 8 14 11 10 12 6 8 12 18 18 14 5 8 4 3 3 2 7 19 12 16 19 19 16 10 6 8 12 16 19 22 27 32 37 41 43 44 45 47 49 49 48
22 30 32 27 21 9 11 10 9 13 7 5 10 10 9 9 9 13 14 11 10 7 11 9 4 1 3 7 12 14 13 11 13 13 13 13 13 11 13 19 25 31 34 38 41 44 46 47 48 49 49 47 46 44
19 17 15 18 18 20 15 11 15 12 8 9 8 9 7 11 12 16 19 20 12 11 4 9 9 9 6 8 11 12 11 7 5 5 4 6 13 18 23 30 37 41 44 46 48 45 45 45 44 43 42 41 40 37
22 15 17 18 16 13 18 20 11 7 5 7 7 9 13 9 14 19 20 24 13 13 10 9 9 4 2 3 2 3 5 6 7 10 13 15 16 20 24 29 31 34 36 37 37 36 34 33 32 30 28 26 25 23
14 14 17 20 12 17 9 14 7 11 6 6 6 7 7 6 12 13 13 11 9 18 16 13 12 9 5 2 2 4 6 8 10 12 14 16 17 18 18 19 22 22 23 23 23 21 21 20 19 18 17 17 17 15
17 15 19 16 25 5 8 13 10 10 9 8 6 5 6 10 14 10 5 4 9 16 15 11 9 8 6 8 8 7 9 11 12 12 13 13 12 12 11 12 14 16 18 18 19 20 19 18 18 18 18 18 18 18
12 29 18 16 19 14 14 10 11 9 7 7 6 8 8 13 5 7 1 6 16 17 19 15 12 10 10 9 9 9 9 11 13 13 14 14 14 14 14 14 16 18 18 18 20 20 20 21 21 22 21 22 22 22
17 26 15 12 12 10 5 7 10 9 7 7 6 10 7 3 7 2 4 13 16 21 23 20 16 10 10 12 13 12 14 15 16 17 16 16 17 19 20 20 21 21 22 22 22 22 24 26 25 25 24 24 25 26
13 10 15 20 11 8 6 4 2 6 8 8 6 9 6 6 3 5 10 12 19 24 22 20 20 17 15 14 16 17 17 19 20 18 18 22 24 25 26 25 24 24 25 27 27 27 27 27 27 27 28 27 28 31
11 22 4 25 10 13 5 5 6 5 4 8 7 6 3 2 3 9 9 18 19 18 16 15 15 16 15 15 16 17 17 17 18 19 19 19 16 17 19 19 20 22 23 26 28 29 29 29 29 29 30 30 28 32
10 28 17 10 7 10 10 3 2 5 11 6 2 4 5 2 7 11 13 15 16 17 16 15 15 15 15 15 15 16 15 16 17 15 15 16 17 17 20 21 22 24 25 25 27 28 29 30 32 34 34 35 33 33
16 32 12 10 5 5 6 12 11 16 11 9 10 8 5 3 8 10 14 18 20 20 18 17 18 19 19 18 16 17 20 17 15 18 19 18 20 21 22 25 25 27 29 28 29 31 34 37 37 40 43 42 40 40
19 20 8 5 2 5 16 17 13 12 8 6 7 7 7 5 1 7 9 17 25 33 23 13 18 21 21 22 25 24 20 20 22 25 28 28 29 29 31 33 35 36 37 37 37 38 39 41 42 44 45 47 46 49
15 14 11 6 4 12 13 21 10 6 6 5 4 7 6 5 5 5 14 23 23 32 31 20 19 21 23 23 28 27 24 25 28 30 32 35 35 35 37 38 39 41 42 42 43 44 45 48 49 49 52 52 52 52
11 13 8 9 7 5 12 21 4 11 4 4 4 8 7 4 4 9 24 19 24 32 25 22 22 26 26 28 31 26 29 33 34 35 38 41 43 43 42 40 38 40 44 46 46 48 49 51 54 55 55 56 57 57
Wind_Direction_500mb
201 214 242 265 221 167 168 163 148 145 144 152 131 127 120 114 118 141 74 107 97 90 64 120 128 139 145 156 156 157 109 62 54 134 145 155 148 200 161 165 178 169 161 199 113 115 251 174 114 169 202 122 139 130
197 203 227 262 186 156 167 154 151 135 126 135 151 134 126 124 122 123 83 89 112 82 98 97 111 116 147 158 157 157 127 121 150 115 159 125 161 130 160 192 267 198 188 180 184 206 209 180 175 186 156 150 147 131
153 197 226 192 180 151 153 151 148 144 141 133 127 147 145 127 120 129 117 95 106 101 79 82 86 94 122 150 165 133 152 143 166 145 151 154 160 136 166 229 105 251 192 178 98 200 204 181 172 162 151 152 142 138
99 82 134 179 155 136 132 129 127 131 147 156 151 129 148 163 118 119 135 114 114 107 93 62 98 89 89 109 172 145 150 131 133 111 77 108 129 195 194 160 151 195 144 166 293 304 151 206 188 174 164 168 175 187
57 59 69 82 93 103 107 110 117 123 125 133 130 143 139 145 151 137 130 125 93 103 123 91 90 86 93 97 129 133 148 140 135 109 104 169 134 121 351 76 273 192 172 168 217 184 154 176 202 206 218 217 223 239
54 52 56 60 66 75 85 90 98 111 120 129 132 128 146 147 150 151 107 162 106 105 98 82 81 84 102 118 116 120 133 117 92 94 110 108 125 125 110 186 265 189 171 137 155 156 129 137 156 186 200 208 225 253
52 52 54 58 60 63 69 75 81 91 114 126 132 135 133 168 156 105 104 150 143 111 90 91 49 102 125 116 99 91 94 81 82 98 71 118 112 103 93 173 247 178 146 127 133 126 120 146 149 177 196 210 233 257
43 30 23 39 49 62 65 69 81 92 92 122 133 138 133 160 183 193 121 149 162 133 74 103 75 121 138 82 72 87 77 83 54 95 107 104 100 64 241 240 169 161 167 164 168 178 151 156 192 220 229 239 246 255
349 338 357 347 321 287 201 122 98 98 113 117 135 146 149 162 102 171 127 154 157 112 112 96 133 179 138 97 106 88 91 61 77 84 231 137 232 219 214 190 179 172 164 166 169 191 244 260 259 251 247 253 266 276
47 37 27 12 11 328 240 196 159 126 125 155 149 126 146 135 155 150 149 155 158 137 118 99 129 134 144 123 86 107 69 129 143 232 135 108 248 227 169 179 187 196 219 232 235 243 250 253 256 261 266 275 282 288
360 343 326 330 344 345 186 183 179 158 178 153 127 136 125 145 157 208 165 156 119 93 167 133 138 128 145 105 126 81 158 108 112 238 136 256 273 227 215 223 223 219 224 234 252 257 257 257 268 272 270 277 284 291
335 328 318 285 230 217 192 184 178 185 183 152 93 139 154 182 215 206 175 127 143 198 161 131 146 121 134 134 103 168 125 76 194 147 112 250 239 156 161 188 206 220 228 236 243 248 254 262 271 281 287 292 295 299
325 302 279 252 225 200 201 194 183 191 169 149 86 129 182 243 211 193 146 51 154 184 163 155 118 129 125 127 80 106 101 188 126 145 210 229 178 151 154 163 179 199 214 227 236 246 256 270 281 287 292 294 294 294
327 271 225 177 104 221 202 221 222 173 156 128 121 330 226 230 288 315 179 163 192 221 156 141 114 123 124 80 136 106 214 85 79 159 228 241 163 147 147 155 156 166 183 202 225 244 262 274 281 288 290 289 287 285
322 231 211 189 199 301 183 193 157 161 146 148 147 194 256 306 296 333 315 326 185 144 142 112 73 90 21 99 52 103 68 184 197 219 231 163 156 145 139 139 135 130 130 126 121 110 63 342 319 309 307 303 301 301
13 166 203 226 225 229 154 186 166 155 87 118 106 90 54 80 336 3 33 60 59 143 135 79 91 66 47 126 95 197 128 204 230 212 161 152 151 141 136 131 127 126 135 149 203 272 289 294 297 298 296 292 288 288
39 64 25 317 198 165 175 152 127 92 92 84 37 82 88 64 2 333 355 23 148 148 105 108 96 177 100 69 59 197 189 209 146 140 146 149 150 144 140 125 111 206 252 257 282 296 301 303 305 305 302 293 290 290
36 46 84 130 147 147 138 102 87 81 59 40 61 24 64 57 13 17 38 60 77 71 52 134 129 113 149 151 255 230 118 125 134 142 154 162 164 169 195 273 297 298 295 293 291 293 294 297 299 299 298 299 299 298
37 65 124 134 135 134 89 58 56 94 65 62 57 44 62 67 64 40 50 61 73 89 110 59 78 116 151 45 30 74 138 141 164 161 165 168 183 214 249 261 266 272 276 280 284 287 289 290 292 293 292 292 292 293
51 96 85 115 143 83 87 64 53 76 69 53 48 35 46 38 51 51 51 60 70 55 44 34 51 84 78 87 106 123 138 140 159 184 185 186 202 233 270 289 296 298 296 293 291 288 288 289 290 290 291 292 292 291
55 79 99 96 78 66 74 48 57 60 75 68 58 40 45 46 34 35 18 17 65 43 73 57 55 62 99 114 129 146 160 169 192 239 243 284 298 299 299 298 297 297 297 295 294 295 295 294 292 291 291 290 289 291
43 65 72 53 61 68 65 43 70 76 84 85 53 38 39 29 13 8 1 43 52 29 24 10 357 24 102 156 160 195 217 246 259 272 278 284 289 289 291 291 293 293 293 294 294 295 293 291 292 291 290 289 289 288
30 44 51 35 66 44 35 27 60 29 60 12 47 55 33 28 9 11 65 49 48 11 12 9 4 350 348 348 313 279 278 288 298 304 304 303 300 297 300 307 313 315 311 303 298 294 292 290 289 289 287 285 283 283
54 51 32 40 28 25 10 29 32 28 55 31 42 41 6 332 352 64 78 54 6 5 7 0 360 7 14 360 343 328 314 305 298 295 297 298 302 302 306 308 311 313 309 308 305 304 300 297 293 290 289 290 291 290
62 12 23 6 15 20 25 10 359 23 47 342 36 13 343 345 55 50 68 344 1 4 4 1 353 357 9 21 354 330 321 312 306 301 301 295 296 293 291 292 294 291 296 300 298 297 299 300 300 299 296 294 292 291
66 17 35 348 360 39 336 33 15 2 346 24 26 329 333 347 57 6 267 339 350 359 359 356 350 347 349 332 325 320 315 307 304 304 298 292 291 297 297 296 294 298 296 292 298 300 297 294 292 289 287 286 285 283
50 344 12 23 1 341 30 32 11 51 41 19 349 340 342 60 7 287 337 351 345 346 346 347 348 343 333 325 315 310 307 303 299 297 295 292 289 287 286 288 292 292 290 293 295 295 293 291 292 290 289 288 289 287
66 19 14 339 18 20 112 38 37 21 291 345 301 10 88 149 236 340 342 345 348 349 347 344 339 333 327 324 318 311 304 304 305 305 300 293 290 293 295 293 295 294 293 291 290 290 290 289 289 288 288 287 284 283
24 354 351 355 14 41 45 94 283 349 332 320 136 283 280 312 2 8 8 12 15 14 11 4 356 351 342 335 328 326 327 322 316 316 308 299 296 295 295 295 295 294 292 289 288 287 285 284 284 285 286 286 287 284
360 355 2 10 60 360 5 356 340 331 326 306 293 294 308 21 29 46 50 41 28 12 4 3 0 354 349 346 341 324 321 321 319 322 323 320 317 312 306 302 299 296 294 291 288 285 286 288 289 290 293 295 295 294
346 351 326 342 299 358 345 339 337 330 328 321 316 293 296 304 104 88 60 24 15 10 358 344 346 347 350 347 343 337 334 329 328 322 317 315 312 308 303 300 299 296 295 293 292 290 289 287 288 289 288 290 291 291
331 354 345 332 335 336 341 348 333 323 316 323 317 329 323 312 287 294 326 329 332 344 349 342 340 347 342 339 338 332 330 328 324 321 318 315 314 310 304 301 299 296 295 295 294 293 292 292 292 291 292 292 292 292
313 334 324 313 308 343 342 344 323 344 283 297 328 349 354 318 297 339 340 335 336 337 337 338 330 331 331 332 333 326 322 321 319 317 314 311 310 308 305 302 299 296 295 295 294 293 292 292 292 293 292 293 293 293
Wind_Speed_850mb
14 10 7 8 20 35 27 20 22 22 20 20 18 19 20 22 20 11 31 20 17 19 24 27 21 22 24 30 18 21 15 4 5 8 7 6 6 11 7 10 15 19 18 10 5 3 25 19 11 19 8 10 15 18
10 14 8 8 29 36 32 28 27 23 22 20 20 18 18 20 21 16 25 31 38 24 29 51 39 32 37 26 37 32 5 16 15 7 5 7 4 3 11 11 3 9 11 11 19 12 6 33 5 13 14 19 17 18
12 9 9 12 27 45 39 28 27 25 21 18 16 16 13 14 18 20 27 36 47 40 26 20 38 40 28 26 48 18 18 18 19 16 9 6 8 8 8 8 7 7 7 5 7 8 7 25 15 20 18 17 19 13
31 32 16 11 29 50 40 36 28 23 20 17 12 14 14 12 16 21 27 22 30 18 9 10 26 31 33 25 34 15 34 31 31 20 9 4 6 8 6 5 6 7 20 11 4 5 3 15 24 26 21 16 13 10
62 60 67 68 61 59 50 40 32 25 22 19 16 14 14 15 16 18 23 19 18 10 9 8 29 27 28 26 28 29 42 47 31 9 5 4 6 7 2 3 3 11 11 9 8 20 7 9 35 25 19 17 13 13
45 48 52 52 51 51 45 37 30 23 19 18 16 14 14 15 21 21 8 13 17 27 15 5 9 15 26 29 34 33 31 23 14 11 5 7 5 2 6 5 9 17 11 7 9 28 15 24 22 22 18 12 9 7
30 34 35 36 36 35 31 29 30 23 18 17 15 14 13 11 24 9 6 15 25 19 12 6 5 8 26 26 20 23 22 18 12 10 6 6 5 6 5 4 6 21 18 23 29 29 17 19 11 13 12 10 10 13
14 21 22 18 18 17 19 18 16 17 18 17 17 14 14 11 11 13 3 21 36 17 11 7 2 5 15 9 8 8 9 10 11 8 6 5 7 5 3 15 12 26 23 20 19 13 12 10 7 10 14 18 21 23
3 14 15 15 15 8 8 9 7 10 11 15 18 18 16 11 4 14 16 38 31 10 10 7 8 7 16 10 9 7 7 5 4 4 1 8 1 7 12 23 32 36 27 25 20 11 12 16 18 22 24 24 26 28
15 12 10 10 5 3 11 16 9 10 10 13 19 8 7 10 11 35 20 17 11 5 7 5 11 5 15 8 4 7 5 5 4 5 13 5 7 23 20 25 29 25 22 22 20 23 31 33 33 35 36 34 34 36
15 13 10 7 5 2 9 16 20 16 15 12 7 3 7 24 24 11 10 8 7 4 12 11 9 11 10 6 5 2 4 1 5 6 8 4 8 4 25 37 38 30 28 29 32 35 31 28 30 29 26 22 23 25
20 18 13 9 10 8 10 22 25 25 12 13 6 6 11 13 10 5 6 8 6 12 11 9 16 16 14 12 7 5 6 4 8 10 6 5 6 5 17 28 36 33 33 35 35 38 41 40 37 34 33 33 32 31
20 14 7 10 13 15 10 17 32 32 24 14 2 1 3 5 7 10 8 2 5 5 26 26 9 16 12 8 11 6 7 6 13 5 7 8 5 10 20 21 22 23 26 31 33 33 29 28 29 32 33 36 37 36
22 9 12 16 8 9 25 16 23 42 24 6 5 5 4 5 3 2 5 6 3 5 37 48 14 7 9 6 4 9 4 6 5 5 12 4 20 26 25 25 19 16 14 14 14 15 17 17 18 19 20 23 27 29
18 11 17 14 21 5 17 19 45 50 13 9 8 4 2 2 5 3 4 4 2 34 38 22 17 11 5 9 5 7 6 4 9 10 6 15 32 31 33 32 31 29 25 21 15 9 4 5 9 15 18 21 24 26
7 14 13 26 27 13 27 27 28 42 7 6 5 7 1 3 5 9 7 5 2 43 30 15 7 8 1 8 7 10 15 13 8 7 9 33 32 29 28 26 22 18 13 8 4 6 12 16 21 25 31 37 39 39
14 5 14 15 32 34 38 38 31 9 6 5 5 13 8 8 1 7 5 6 7 6 5 7 8 8 6 7 2 8 10 7 7 18 28 30 26 21 15 8 4 1 3 5 8 13 17 23 29 34 35 38 42 45
32 18 13 41 50 51 42 13 10 8 11 14 6 8 9 8 6 6 5 10 6 6 4 4 15 5 9 10 7 5 6 13 25 26 26 22 16 10 6 5 9 13 18 21 23 26 30 33 37 42 46 49 50 51
28 30 38 51 39 34 10 10 8 9 9 7 8 14 11 10 12 6 8 12 18 18 14 5 8 4 3 3 2 7 19 12 16 19 19 16 10 6 8 12 16 19 22 27 32 37 41 43 44 45 47 49 49 48
22 30 32 27 21 9 11 10 9 13 7 5 10 10 9 9 9 13 14 11 10 7 11 9 4 1 3 7 12 14 13 11 13 13 13 13 13 11 13 19 25 31 34 38 41 44 46 47 48 49 49 47 46 44
19 17 15 18 18 20 15 11 15 12 8 9 8 9 7 11 12 16 19 20 12 11 4 9 9 9 6 8 11 12 11 7 5 5 4 6 13 18 23 30 37 41 44 46 48 45 45 45 44 43 42 41 40 37
22 15 17 18 16 13 18 20 11 7 5 7 7 9 13 9 14 19 20 24 13 13 10 9 9 4 2 3 2 3 5 6 7 10 13 15 16 20 24 29 31 34 36 37 37 36 34 33 32 30 28 26 25 23
14 14 17 20 12 17 9 14 7 11 6 6 6 7 7 6 12 13 13 11 9 18 16 13 12 9 5 2 2 4 6 8 10 12 14 16 17 18 18 19 22 22 23 23 23 21 21 20 19 18 17 17 17 15
17 15 19 16 25 5 8 13 10 10 9 8 6 5 6 10 14 10 5 4 9 16 15 11 9 8 6 8 8 7 9 11 12 12 13 13 12 12 11 12 14 16 18 18 19 20 19 18 18 18 18 18 18 18
12 29 18 16 19 14 14 10 11 9 7 7 6 8 8 13 5 7 1 6 16 17 19 15 12 10 10 9 9 9 9 11 13 13 14 14 14 14 14 14 16 18 18 18 20 20 20 21 21 22 21 22 22 22
17 26 15 12 12 10 5 7 10 9 7 7 6 10 7 3 7 2 4 13 16 21 23 20 16 10 10 12 13 12 14 15 16 17 16 16 17 19 20 20 21 21 22 22 22 22 24 26 25 25 24 24 25 26
13 10 15 20 11 8 6 4 2 6 8 8 6 9 6 6 3 5 10 12 19 24 22 20 20 17 15 14 16 17 17 19 20 18 18 22 24 25 26 25 24 24 25 27 27 27 27 27 27 27 28 27 28 31
11 22 4 25 10 13 5 5 6 5 4 8 7 6 3 2 3 9 9 18 19 18 16 15 15 16 15 15 16 17 17 17 18 19 19 19 16 17 19 19 20 22 23 26 28 29 29 29 29 29 30 30 28 32
10 28 17 10 7 10 10 3 2 5 11 6 2 4 5 2 7 11 13 15 16 17 16 15 15 15 15 15 15 16 15 16 17 15 15 16 17 17 20 21 22 24 25 25 27 28 29 30 32 34 34 35 33 33
16 32 12 10 5 5 6 12 11 16 11 9 10 8 5 3 8 10 14 18 20 20 18 17 18 19 19 18 16 17 20 17 15 18 19 18 20 21 22 25 25 27 29 28 29 31 34 37 37 40 43 42 40 40
19 20 8 5 2 5 16 17 13 12 8 6 7 7 7 5 1 7 9 17 25 33 23 13 18 21 21 22 25 24 20 20 22 25 28 28 29 29 31 33 35 36 37 37 37 38 39 41 42 44 45 47 46 49
15 14 11 6 4 12 13 21 10 6 6 5 4 7 6 5 5 5 14 23 23 32 31 20 19 21 23 23 28 27 24 25 28 30 32 35 35 35 37 38 39 41 42 42 43 44 45 48 49 49 52 52 52 52
11 13 8 9 7 5 12 21 4 11 4 4 4 8 7 4 4 9 24 19 24 32 25 22 22 26 26 28 31 26 29 33 34 35 38 41 43 43 42 40 38 40 44 46 46 48 49 51 54 55 55 56 57 57
Wind_Direction_850mb
201 214 242 265 221 167 168 163 148 145 144 152 131 127 120 114 118 141 74 107 97 90 64 120 128 139 145 156 156 157 109 62 54 134 145 155 148 200 161 165 178 169 161 199 113 115 251 174 114 169 202 122 139 130
197 203 227 262 186 156 167 154 151 135 126 135 151 134 126 124 122 123 83 89 112 82 98 97 111 116 147 158 157 157 127 121 150 115 159 125 161 130 160 192 267 198 188 180 184 206 209 180 175 186 156 150 147 131
153 197 226 192 180 151 153 151 148 144 141 133 127 147 145 127 120 129 117 95 106 101 79 82 86 94 122 150 165 133 152 143 166 145 151 154 160 136 166 229 105 251 192 178 98 200 204 181 172 162 151 152 142 138
99 82 134 179 155 136 132 129 127 131 147 156 151 129 148 163 118 119 135 114 114 107 93 62 98 89 89 109 172 145 150 131 133 111 77 108 129 195 194 160 151 195 144 166 293 304 151 206 188 174 164 168 175 187
57 59 69 82 93 103 107 110 117 123 125 133 130 143 139 145 151 137 130 125 93 103 123 91 90 86 93 97 129 133 148 140 135 109 104 169 134 121 351 76 273 192 172 168 217 184 154 176 202 206 218 217 223 239
54 52 56 60 66 75 85 90 98 111 120 129 132 128 146 147 150 151 107 162 106 105 98 82 81 84 102 118 116 120 133 117 92 94 110 108 125 125 110 186 265 189 171 137 155 156 129 137 156 186 200 208 225 253
52 52 54 58 60 63 69 75 81 91 114 126 132 135 133 168 156 105 104 150 143 111 90 91 49 102 125 116 99 91 94 81 82 98 71 118 112 103 93 173 247 178 146 127 133 126 120 146 149 177 196 210 233 257
43 30 23 39 49 62 65 69 81 92 92 122 133 138 133 160 183 193 121 149 162 133 74 103 75 121 138 82 72 87 77 83 54 95 107 104 100 64 241 240 169 161 167 164 168 178 151 156 192 220 229 239 246 255
349 338 357 347 321 287 201 122 98 98 113 117 135 146 149 162 102 171 127 154 157 112 112 96 133 179 138 97 106 88 91 61 77 84 231 137 232 219 214 190 179 172 164 166 169 191 244 260 259 251 247 253 266 276
47 37 27 12 11 328 240 196 159 126 125 155 149 126 146 135 155 150 149 155 158 137 118 99 129 134 144 123 86 107 69 129 143 232 135 108 248 227 169 179 187 196 219 232 235 243 250 253 256 261 266 275 282 288
360 343 326 330 344 345 186 183 179 158 178 153 127 136 125 145 157 208 165 156 119 93 167 133 138 128 145 105 126 81 158 108 112 238 136 256 273 227 215 223 223 219 224 234 252 257 257 257 268 272 270 277 284 291
335 328 318 285 230 217 192 184 178 185 183 152 93 139 154 182 215 206 175 127 143 198 161 131 146 121 134 134 103 168 125 76 194 147 112 250 239 156 161 188 206 220 228 236 243 248 254 262 271 281 287 292 295 299
325 302 279 252 225 200 201 194 183 191 169 149 86 129 182 243 211 193 146 51 154 184 163 155 118 129 125 127 80 106 101 188 126 145 210 229 178 151 154 163 179 199 214 227 236 246 256 270 281 287 292 294 294 294
327 271 225 177 104 221 202 221 222 173 156 128 121 330 226 230 288 315 179 163 192 221 156 141 114 123 124 80 136 106 214 85 79 159 228 241 163 147 147 155 156 166 183 202 225 244 262 274 281 288 290 289 287 285
322 231 211 189 199 301 183 193 157 161 146 148 147 194 256 306 296 333 315 326 185 144 142 112 73 90 21 99 52 103 68 184 197 219 231 163 156 145 139 139 135 130 130 126 121 110 63 342 319 309 307 303 301 301
13 166 203 226 225 229 154 186 166 155 87 118 106 90 54 80 336 3 33 60 59 143 135 79 91 66 47 126 95 197 128 204 230 212 161 152 151 141 136 131 127 126 135 149 203 272 289 294 297 298 296 292 288 288
39 64 25 317 198 165 175 152 127 92 92 84 37 82 88 64 2 333 355 23 148 148 105 108 96 177 100 69 59 197 189 209 146 140 146 149 150 144 140 125 111 206 252 257 282 296 301 303 305 305 302 293 290 290
36 46 84 130 147 147 138 102 87 81 59 40 61 24 64 57 13 17 38 60 77 71 52 134 129 113 149 151 255 230 118 125 134 142 154 162 164 169 195 273 297 298 295 293 291 293 294 297 299 299 298 299 299 298
37 65 124 134 135 134 89 58 56 94 65 62 57 44 62 67 64 40 50 61 73 89 110 59 78 116 151 45 30 74 138 141 164 161 165 168 183 214 249 261 266 272 276 280 284 287 289 290 292 293 292 292 292 293
51 96 85 115 143 83 87 64 53 76 69 53 48 35 46 38 51 51 51 60 70 55 44 34 51 84 78 87 106 123 138 140 159 184 185 186 202 233 270 289 296 298 296 293 291 288 288 289 290 290 291 292 292 291
55 79 99 96 78 66 74 48 57 60 75 68 58 40 45 46 34 35 18 17 65 43 73 57 55 62 99 114 129 146 160 169 192 239 243 284 298 299 299 298 297 297 297 295 294 295 295 294 292 291 291 290 289 291
43 65 72 53 61 68 65 43 70 76 84 85 53 38 39 29 13 8 1 43 52 29 24 10 357 24 102 156 160 195 217 246 259 272 278 284 289 289 291 291 293 293 293 294 294 295 293 291 292 291 290 289 289 288
30 44 51 35 66 44 35 27 60 29 60 12 47 55 33 28 9 11 65 49 48 11 12 9 4 350 348 348 313 279 278 288 298 304 304 303 300 297 300 307 313 315 311 303 298 294 292 290 289 289 287 285 283 283
54 51 32 40 28 25 10 29 32 28 55 31 42 41 6 332 352 64 78 54 6 5 7 0 360 7 14 360 343 328 314 305 298 295 297 298 302 302 306 308 311 313 309 308 305 304 300 297 293 290 289 290 291 290
62 12 23 6 15 20 25 10 359 23 47 342 36 13 343 345 55 50 68 344 1 4 4 1 353 357 9 21 354 330 321 312 306 301 301 295 296 293 291 292 294 291 296 300 298 297 299 300 300 299 296 294 292 291
66 17 35 348 360 39 336 33 15 2 346 24 26 329 333 347 57 6 267 339 350 359 359 356 350 347 349 332 325 320 315 307 304 304 298 292 291 297 297 296 294 298 296 292 298 300 297 294 292 289 287 286 285 283
50 344 12 23 1 341 30 32 11 51 41 19 349 340 342 60 7 287 337 351 345 346 346 347 348 343 333 325 315 310 307 303 299 297 295 292 289 287 286 288 292 292 290 293 295 295 293 291 292 290 289 288 289 287
66 19 14 339 18 20 112 38 37 21 291 345 301 10 88 149 236 340 342 345 348 349 347 344 339 333 327 324 318 311 304 304 305 305 300 293 290 293 295 293 295 294 293 291 290 290 290 289 289 288 288 287 284 283
24 354 351 355 14 41 45 94 283 349 332 320 136 283 280 312 2 8 8 12 15 14 11 4 356 351 342 335 328 326 327 322 316 316 308 299 296 295 295 295 295 294 292 289 288 287 285 284 284 285 286 286 287 284
360 355 2 10 60 360 5 356 340 331 326 306 293 294 308 21 29 46 50 41 28 12 4 3 0 354 349 346 341 324 321 321 319 322 323 320 317 312 306 302 299 296 294 291 288 285 286 288 289 290 293 295 295 294
346 351 326 342 299 358 345 339 337 330 328 321 316 293 296 304 104 88 60 24 15 10 358 344 346 347 350 347 343 337 334 329 328 322 317 315 312 308 303 300 299 296 295 293 292 290 289 287 288 289 288 290 291 291
331 354 345 332 335 336 341 348 333 323 316 323 317 329 323 312 287 294 326 329 332 344 349 342 340 347 342 339 338 332 330 328 324 321 318 315 314 310 304 301 299 296 295 295 294 293 292 292 292 291 292 292 292 292
313 334 324 313 308 343 342 344 323 344 283 297 328 349 354 318 297 339 340 335 336 337 337 338 330 331 331 332 333 326 322 321 319 317 314 311 310 308 305 302 299 296 295 295 294 293 292 292 292 293 292 293 293 293